Regional Weather Roundup
Issued by NWS Midland/Odessa, TX

Skip options and go directly to product.
Home | Oldest Version | Previous Version | Current Version | All | Graphics & Text | Save Text | Print | Product List | Glossary On

Skip product version selection by date and time.   
173
ASUS44 KMAF 221010
RWRMAF
MIDLAND AREA WEATHER ROUNDUP
NATIONAL WEATHER SERVICE MIDLAND TX
400 AM CST SAT NOV 22 2014

...IN SOUTHWEST TEXAS AND SOUTHEAST NEW MEXICO...

CITY           SKY/WX    TMP DP  RH WIND       PRES   REMARKS
ALPINE         CLOUDY    44  41  89 CALM      30.03S
ANDREWS        CLOUDY    55  53  94 NE5       29.98S
ARTESIA        NOT AVBL
BIG SPRING     CLOUDY    60  55  83 NE6       29.99S
CARLSBAD       CLOUDY    49  44  83 N7        29.97F
DRYDEN           N/A     60  59  96 CALM      29.90S
FORT STOCKTON  CLOUDY    53  52  96 SW6       29.95S
GUAD PASS      CLOUDY    55  27  34 NW8       30.03S
HOBBS          CLOUDY    54  54 100 CALM      30.00R FOG
MARFA          CLOUDY    43  36  75 NW3       30.00R
MIDLAND AIRPK  CLOUDY    58  55  89 CALM      29.98R
MIDLAND INTL   CLOUDY    57  54  89 NE6       29.96S
ODESSA         CLOUDY    56  54  93 E7        29.96F
PECOS          CLOUDY    46  44  93 CALM      29.95S FOG
PRESIDIO       FAIR      57  48  72 NE6       29.91S
SEMINOLE       CLOUDY    54  50  87 E3        30.00F
SNYDER         DRIZZLE   57  55  91 SE8       29.98F
WINK           CLOUDY    55  51  86 SE6       29.95R
$$
...OTHER STATIONS IN TEXAS...

CITY           SKY/WX    TMP DP  RH WIND       PRES   REMARKS
ABILENE        CLOUDY    64  61  90 S12       29.98F
AMARILLO       CLOUDY    42  36  79 SW8       30.02S WCI  37
AUSTIN         CLOUDY    66  63  90 SE12      30.02S
BROWNSVILLE    CLOUDY    72  70  93 SE12      29.98F
CORPUS CHRISTI MOCLDY    71  67  87 SE13G22   29.98F
DALLAS FTW     CLOUDY    58  58 100 SE12      30.05F FOG
DEL RIO        LGT RAIN  67  65  93 SE10      29.92S
EL PASO        CLOUDY    59  33  37 W5        30.01R
HOUSTON INT    PTCLDY    58  57  97 E9        30.10S
LUBBOCK        CLOUDY    44  41  89 NE6       30.00S
SAN ANGELO     MOCLDY    60  58  92 E5        29.96S
SAN ANTONIO    CLOUDY    68  65  90 SE16      30.01S
WACO           CLOUDY    64  61  90 SE17      30.04F
WICHITA FALLS  NOT AVBL
$$
...OTHER LOCATIONS IN NEW MEXICO...

CITY           SKY/WX    TMP DP  RH WIND       PRES   REMARKS
ALAMAGORDO     PTCLDY    45  23  42 MISG      30.01F
ALBUQUERQUE    PTCLDY    36  18  48 N10       30.09R WCI  28
CANNON AFB     MOCLDY    47  38  71 CALM      30.01F
CLOVIS         CLOUDY    45  34  65 W5        30.01S
HOLLOMAN AFB   PTCLDY    38  27  65 NW1       30.00S
ROSWELL        CLOUDY    45  33  63 W3        30.01R
RUIDOSO        MOCLDY    39  19  45 W6        30.09S WCI  35
SANTA FE       CLEAR     29  21  72 N9        30.08S WCI  20
TRUTH OR CONSE MOCLDY    44  23  43 N5        30.04S
TUCUMCARI      PTCLDY    38  24  57 W3        29.98F
$$

USA.gov is the U.S. government's official web portal to all federal, state and local government web resources and services.